EST,Max TemperatureF,Mean TemperatureF,Min TemperatureF,Max Dew PointF,MeanDew PointF,Min DewpointF,Max Humidity, Mean Humidity, Min Humidity, Max Sea Level PressureIn, Mean Sea Level PressureIn, Min Sea Level PressureIn, Max VisibilityMiles, Mean VisibilityMiles, Min VisibilityMiles, Max Wind SpeedMPH, Mean Wind SpeedMPH, Max Gust SpeedMPH,PrecipitationIn, CloudCover, Events, WindDirDegrees
2011-11-1,62,46,30,38,33,28,100,75,39,30.25,30.19,30.14,10,6,1,13,3,,0.00,0,,164
2011-11-2,68,57,48,41,38,34,61,50,37,30.17,30.10,29.99,10,10,10,16,12,24,0.00,0,,189
2011-11-3,55,50,45,45,42,38,87,78,57,30.14,30.01,29.96,10,9,5,20,9,26,0.00,6,Rain,49
2011-11-4,55,44,32,36,31,27,89,67,40,30.33,30.27,30.15,10,10,7,15,10,20,0.00,0,,62
2011-11-5,57,42,28,30,28,23,85,61,36,30.34,30.27,30.18,10,10,9,12,5,,0.00,0,Snow,138
2011-11-6,63,52,41,43,38,30,68,59,48,30.19,30.16,30.10,10,10,10,26,11,32,0.00,2,,180
2011-11-7,57,55,53,54,50,42,100,86,59,30.26,30.21,30.17,10,5,1,10,6,,0.16,8,Rain,179
2011-11-8,64,58,53,55,53,51,100,83,63,30.18,30.07,29.93,10,7,2,15,7,22,0.04,7,Rain,145
2011-11-9,63,51,39,57,47,35,94,83,64,29.97,29.76,29.60,10,9,2,34,15,54,0.10,7,Rain,199
2011-11-10,41,37,33,33,31,29,96,87,65,30.00,29.97,29.95,10,6,0,22,12,28,0.11,6,Fog-Snow,246
2011-11-11,42,38,33,31,28,26,89,71,58,30.05,29.96,29.81,10,10,10,15,12,21,0.00,4,,219
2011-11-12,60,48,36,39,34,28,83,58,42,29.90,29.83,29.74,10,10,10,24,12,34,0.00,1,,200
2011-11-13,64,60,53,54,47,32,72,62,39,29.73,29.58,29.46,10,10,10,31,23,44,0.00,5,,204
2011-11-14,52,46,39,46,42,31,100,87,50,29.75,29.64,29.54,10,5,0,15,5,21,0.62,4,Fog-Rain-Thunderstorm,159
2011-11-15,60,48,37,49,44,37,100,87,60,29.83,29.79,29.74,10,5,0,17,5,25,0.00,2,Fog,191
2011-11-16,48,40,32,47,30,20,93,67,43,30.13,29.98,29.82,10,10,5,18,10,25,0.00,1,,295
2011-11-17,36,32,26,21,17,14,72,58,44,30.28,30.18,30.12,10,10,10,20,10,28,0.00,2,,244
2011-11-18,50,38,25,20,17,15,69,44,25,30.29,30.17,30.01,10,10,10,26,12,36,0.00,2,,187
2011-11-19,57,48,42,47,34,21,72,58,43,30.04,29.94,29.84,10,10,10,23,13,33,0.00,7,,190
2011-11-20,60,50,39,51,39,32,78,70,59,30.31,30.13,29.88,10,10,9,21,14,32,0.00,5,,312
2011-11-21,43,40,36,36,34,32,89,84,76,30.34,30.29,30.22,10,10,7,16,8,22,0.06,5,Rain,75
2011-11-22,43,40,37,40,37,33,93,87,80,30.24,29.94,29.75,9,6,2,18,12,25,0.99,7,Rain,44
2011-11-23,50,40,30,40,36,29,100,86,66,30.27,30.17,29.90,10,7,1,14,7,,0.00,2,Rain,257
2011-11-24,46,40,35,41,37,33,100,89,79,30.30,30.23,30.15,8,4,0,18,11,25,0.00,5,Fog,214
2011-11-25,59,49,39,42,40,36,86,69,53,30.15,30.04,29.97,10,10,8,24,14,30,0.00,0,,197
2011-11-26,63,57,51,52,47,38,84,69,59,30.00,29.92,29.80,10,10,9,20,13,25,0.05,5,Rain,185
2011-11-27,55,46,37,54,43,33,94,89,81,30.10,29.88,29.73,10,10,6,17,12,21,0.58,8,Rain,303
2011-11-28,37,35,33,35,31,28,93,82,75,30.13,30.04,29.90,10,9,3,15,10,22,0.36,7,Rain,23
2011-11-29,37,35,33,35,32,26,96,89,75,29.91,29.80,29.74,10,4,0,24,15,34,0.86,8,Fog-Rain-Snow,344
2011-11-30,39,33,27,30,26,22,85,78,65,30.19,30.02,29.85,10,10,10,16,9,21,0.49,1,,267